FW2111 Weather Reports


Display with metric or nautical units.
time (UTC)temp
F
wind
direction
speed
MPH
gust
MPH
rain 1hr
in
rain 24hr
in
rain mn
in
humidity
%
barometer
mb
20260904132925 62 61 1.0 5.0 0.00 1.05 0.43 84 1014.7
20260904132401 62 66 2.0 5.0 0.00 1.05 0.43 84 1014.6
20260904131900 62 66 2.0 5.0 0.00 1.05 0.43 84 1014.6
20260904131357 62 56 2.0 5.0 0.00 1.05 0.43 84 1014.5
20260904130856 62 62 2.0 5.0 0.00 1.05 0.43 84 1014.5
20260904130355 62 63 3.0 7.0 0.00 1.05 0.43 84 1014.4
20260904125851 62 61 4.0 9.0 0.00 1.05 0.43 84 1014.4
20260904125332 61 16 3.0 9.0 0.00 1.05 0.43 84 1014.2
20260904124835 61 67 3.0 10.0 0.00 1.05 0.43 84 1014.2
20260904124324 61 55 3.0 10.0 0.00 1.05 0.43 84 1014.1
20260904123821 61 74 3.0 5.0 0.00 1.05 0.43 84 1014.1
20260904123529 61 46 2.0 7.0 0.00 1.05 0.43 84 1014.0
20260904122736 61 62 2.0 7.0 0.00 1.05 0.43 84 1013.9
20260904122212 61 57 3.0 6.0 0.00 1.05 0.43 83 1013.8
20260904121922 61 56 2.0 6.0 0.00 1.05 0.43 83 1013.9
20260904121126 61 61 3.0 6.0 0.00 1.05 0.43 83 1013.8
20260904120852 61 64 3.0 6.0 0.00 1.05 0.43 83 1013.9
20260904120120 61 5 3.0 10.0 0.00 1.05 0.43 83 1013.8
20260904115609 61 27 3.0 9.0 0.00 1.05 0.43 83 1013.8
20260904115107 61 40 2.0 6.0 0.00 1.05 0.43 83 1013.6
20260904114542 61 40 3.0 6.0 0.00 1.05 0.43 83 1013.5
20260904114038 61 71 3.0 8.0 0.00 1.05 0.43 83 1013.5
20260904113536 61 92 2.0 8.0 0.00 1.05 0.43 83 1013.5
20260904113033 61 88 2.0 6.0 0.00 1.05 0.43 83 1013.4
20260904112507 61 77 2.0 5.0 0.00 1.05 0.43 83 1013.4
20260904111941 61 65 3.0 7.0 0.00 1.05 0.43 83 1013.3
20260904111416 61 63 2.0 6.0 0.00 1.05 0.43 82 1013.4
20260904110846 61 80 3.0 7.0 0.00 1.05 0.43 82 1013.3
20260904110321 61 101 4.0 10.0 0.00 1.05 0.43 82 1013.4
20260904105755 61 61 3.0 10.0 0.00 1.05 0.43 82 1013.3
20260904105227 61 63 2.0 8.0 0.00 1.05 0.43 82 1013.2
20260904104725 61 59 2.0 8.0 0.00 1.05 0.43 82 1013.2
20260904104224 61 69 3.0 7.0 0.00 1.05 0.43 82 1013.3
20260904103720 61 65 4.0 10.0 0.00 1.05 0.43 82 1013.4
20260904103153 61 66 4.0 11.0 0.00 1.05 0.43 82 1013.2
20260904102627 60 76 4.0 11.0 0.00 1.05 0.43 82 1013.2
20260904102100 60 46 3.0 8.0 0.00 1.05 0.43 82 1013.2
20260904101556 60 32 3.0 7.0 0.00 1.05 0.43 82 1013.1
20260904101030 60 32 3.0 7.0 0.00 1.05 0.43 81 1013.0
20260904100526 60 69 3.0 10.0 0.00 1.05 0.43 81 1013.2
20260904095959 60 79 3.0 10.0 0.00 1.05 0.43 81 1013.3
20260904095458 60 58 3.0 8.0 0.00 1.05 0.43 82 1013.2
20260904094931 60 67 3.0 10.0 0.00 1.05 0.43 82 1013.1
20260904094425 60 69 3.0 10.0 0.00 1.05 0.43 82 1013.0
20260904094154 60 74 3.0 6.0 0.00 1.05 0.43 82 1012.9
20260904093417 60 88 4.0 9.0 0.00 1.05 0.43 82 1012.8
20260904092851 60 49 4.0 10.0 0.00 1.05 0.43 82 1012.8
20260904092555 60 81 3.0 10.0 0.00 1.05 0.43 82 1012.8
20260904091819 60 61 4.0 13.0 0.00 1.05 0.43 82 1012.8
20260904091309 60 28 5.0 13.0 0.00 1.05 0.43 82 1013.1
20260904090806 60 66 4.0 11.0 0.00 1.05 0.43 82 1013.2
20260904090240 60 42 3.0 11.0 0.00 1.05 0.43 82 1013.1
20260904085736 61 35 3.0 9.0 0.01 1.05 0.43 82 1013.5
20260904085441 61 62 3.0 9.0 0.02 1.05 0.43 82 1013.6
20260904084707 61 66 3.0 9.0 0.02 1.05 0.43 82 1013.7
20260904084139 61 65 3.0 9.0 0.03 1.05 0.43 82 1013.7
20260904083637 61 70 3.0 8.0 0.06 1.05 0.43 82 1013.7
20260904083110 61 74 2.0 8.0 0.23 1.05 0.43 82 1013.9
20260904082546 61 81 2.0 5.0 0.31 1.05 0.43 81 1014.1
20260904082018 61 16 2.0 5.0 0.35 1.05 0.43 81 1014.3
20260904081452 61 88 3.0 6.0 0.35 1.05 0.43 80 1013.7
20260904080950 61 105 4.0 12.0 0.37 1.05 0.43 79 1013.6
20260904080447 61 110 4.0 12.0 0.41 1.05 0.43 77 1012.9
20260904075919 61 74 2.0 9.0 0.42 1.05 0.43 75 1013.3
20260904075415 61 94 1.0 4.0 0.41 1.04 0.42 74 1013.9
20260904074847 62 152 3.0 8.0 0.41 1.03 0.41 74 1014.0
20260904074343 62 153 5.0 13.0 0.40 1.02 0.40 73 1014.3
20260904073841 62 83 5.0 13.0 0.39 1.01 0.39 72 1013.6
20260904073313 62 63 4.0 8.0 0.26 0.88 0.26 71 1014.4
20260904072811 62 277 3.0 9.0 0.16 0.78 0.17 71 1015.3
20260904072244 62 40 4.0 14.0 0.08 0.70 0.09 70 1015.2
20260904071719 62 248 4.0 9.0 0.08 0.70 0.08 71 1015.1
20260904071151 62 86 5.0 17.0 0.07 0.69 0.07 70 1013.8
20260904070649 62 35 6.0 16.0 0.05 0.67 0.05 70 1014.8
20260904070122 62 257 7.0 22.0 0.01 0.63 0.01 70 1015.3
20260904065618 62 64 9.0 22.0 0.01 0.63 0.01 70 1013.8
20260904065052 62 75 11.0 26.0 0.00 0.62 0.00 69 1013.7
20260904064549 62 63 8.0 23.0 0.00 0.62 0.00 69 1013.3
20260904064021 62 106 8.0 19.0 0.00 0.62 0.00 69 1013.6
20260904063749 62 92 9.0 21.0 0.00 0.62 0.00 68 1013.8
20260904062953 62 23 10.0 21.0 0.00 0.62 0.00 68 1013.8
20260904062427 62 140 8.0 21.0 0.00 0.62 0.00 68 1014.0
20260904061923 62 94 7.0 15.0 0.00 0.62 0.00 67 1014.0
20260904061421 62 26 9.0 21.0 0.00 0.62 0.00 67 1014.2
20260904060853 62 36 9.0 21.0 0.00 0.62 0.00 67 1014.2
20260904060354 62 27 8.0 21.0 0.00 0.62 0.00 67 1014.2
20260904055847 62 85 9.0 21.0 0.00 0.62 0.00 68 1014.3
20260904055321 62 103 9.0 21.0 0.00 0.62 0.00 68 1014.2
20260904054821 62 68 8.0 21.0 0.00 0.62 0.00 68 1014.2
20260904054323 62 24 7.0 17.0 0.00 0.62 0.00 68 1014.4
20260904054027 62 69 9.0 23.0 0.00 0.62 0.00 68 1014.3
20260904053253 62 74 9.0 23.0 0.00 0.62 0.00 68 1014.2
20260904053002 62 61 8.0 18.0 0.00 0.62 0.00 68 1014.5
20260904052235 62 61 9.0 18.0 0.00 0.62 0.00 68 1014.6
20260904051715 62 80 10.0 22.0 0.00 0.62 0.00 68 1014.3
20260904051219 62 74 9.0 19.0 0.00 0.62 0.00 68 1014.2
20260904050653 62 78 8.0 19.0 0.00 0.62 0.00 68 1014.2
20260904050403 62 88 7.0 19.0 0.00 0.62 0.00 68 1014.4
20260904045626 62 81 8.0 16.0 0.00 0.62 0.62 68 1014.4
20260904045125 62 56 8.0 19.0 0.00 0.62 0.62 68 1014.4
20260904044558 62 60 7.0 19.0 0.00 0.62 0.62 69 1014.6
20260904044053 62 58 8.0 16.0 0.00 0.62 0.62 69 1014.6
20260904043550 62 86 8.0 16.0 0.00 0.62 0.62 69 1014.4
20260904043045 62 48 7.0 16.0 0.01 0.62 0.62 69 1014.4
20260904042518 62 117 7.0 19.0 0.02 0.62 0.62 69 1014.5
20260904041952 62 49 7.0 19.0 0.02 0.62 0.62 69 1014.4
20260904041427 62 115 6.0 13.0 0.02 0.62 0.62 70 1014.6
20260904040901 62 49 7.0 16.0 0.02 0.62 0.62 70 1014.5
20260904040333 62 355 7.0 20.0 0.02 0.62 0.62 70 1014.7
20260904035831 62 84 6.0 16.0 0.02 0.62 0.62 70 1014.8
20260904035306 62 34 6.0 16.0 0.02 0.62 0.62 70 1014.8
20260904034802 62 63 5.0 15.0 0.04 0.62 0.62 70 1015.0
20260904034301 62 39 7.0 14.0 0.07 0.62 0.62 71 1015.0
20260904033737 62 70 7.0 15.0 0.12 0.62 0.62 71 1014.7
20260904033214 62 30 5.0 13.0 0.26 0.61 0.62 71 1014.7
20260904032702 62 89 6.0 14.0 0.33 0.60 0.61 71 1014.8
20260904032200 62 111 8.0 15.0 0.43 0.60 0.60 71 1014.5
20260904031655 62 83 7.0 18.0 0.46 0.60 0.60 71 1014.8
20260904031156 62 19 7.0 14.0 0.50 0.60 0.60 71 1014.7
20260904030630 62 36 8.0 14.0 0.52 0.60 0.60 71 1014.8
20260904030107 62 0 8.0 18.0 0.56 0.60 0.60 71 1015.0
20260904025610 62 19 7.0 18.0 0.60 0.60 0.60 71 1015.0
20260904025046 62 28 6.0 18.0 0.59 0.59 0.59 71 1015.3
20260904024525 62 35 5.0 13.0 0.56 0.56 0.56 70 1015.6
20260904024027 62 88 7.0 15.0 0.53 0.53 0.54 70 1015.8
20260904023512 63 5 7.0 14.0 0.31 0.31 0.32 70 1015.4
20260904023508 63 21 8.0 15.0 0.43 0.43 0.44 70 1015.4
20260904022449 63 17 7.0 15.0 0.24 0.24 0.24 70 1015.5
20260904021950 64 38 8.0 16.0 0.16 0.16 0.16 69 1016.1
20260904021431 64 347 9.0 16.0 0.12 0.12 0.12 68 1016.0
20260904021204 64 5 8.0 15.0 0.10 0.10 0.10 67 1015.9
20260904020416 65 33 8.0 15.0 0.07 0.07 0.07 65 1014.9
20260904015856 66 68 8.0 19.0 0.00 0.00 0.01 62 1014.2
20260904015628 66 76 8.0 19.0 0.00 0.00 0.00 61 1014.3
20260904014854 66 80 9.0 21.0 0.00 0.00 0.00 61 1013.6
20260904014331 66 69 8.0 21.0 0.00 0.00 0.00 61 1013.6
20260904013829 66 11 8.0 22.0 0.00 0.00 0.00 61 1013.5
20260904013327 66 42 8.0 22.0 0.00 0.00 0.00 61 1013.6
20260904012830 66 72 7.0 21.0 0.00 0.00 0.00 61 1013.5
20260904012315 66 86 7.0 21.0 0.00 0.00 0.00 61 1013.7
20260904012041 66 32 8.0 15.0 0.00 0.00 0.00 62 1013.9
20260904011310 66 71 8.0 17.0 0.00 0.00 0.00 62 1013.7
20260904010748 66 64 8.0 19.0 0.00 0.00 0.00 62 1013.9
20260904010223 66 84 8.0 20.0 0.00 0.00 0.00 62 1013.7
20260904005700 66 57 8.0 20.0 0.00 0.00 0.00 62 1013.9
20260904005138 66 61 7.0 17.0 0.00 0.00 0.00 62 1014.2
20260904004611 66 78 7.0 17.0 0.00 0.00 0.00 62 1014.1
20260904004049 66 69 9.0 20.0 0.00 0.00 0.00 62 1013.9
20260904003544 66 42 9.0 20.0 0.00 0.00 0.00 62 1013.7
20260904003312 66 33 9.0 20.0 0.00 0.00 0.00 62 1013.9
20260904002539 66 62 9.0 22.0 0.00 0.00 0.00 63 1013.9
20260904002036 66 71 7.0 22.0 0.00 0.00 0.00 63 1013.8
20260904001741 66 22 8.0 27.0 0.00 0.00 0.00 63 1013.6
20260904001237 66 26 10.0 27.0 0.00 0.00 0.00 62 1013.5
20260904000503 66 82 11.0 22.0 0.00 0.00 0.00 62 1013.4
20260904000211 66 5 11.0 23.0 0.00 0.00 0.00 61 1013.5
20260903235435 67 78 11.0 23.0 0.00 0.00 0.00 61 1013.8
20260903234908 67 46 11.0 22.0 0.00 0.00 0.00 60 1013.6
20260903234400 67 60 10.0 25.0 0.00 0.00 0.00 59 1013.5
20260903233847 67 78 10.0 25.0 0.00 0.00 0.00 58 1013.5
20260903233344 68 61 11.0 21.0 0.00 0.00 0.00 56 1013.5
20260903232829 68 98 10.0 20.0 0.00 0.00 0.00 55 1013.5
20260903232600 69 35 12.0 26.0 0.00 0.00 0.00 54 1013.4
20260903231830 69 78 13.0 26.0 0.00 0.00 0.00 53 1013.2
20260903231304 69 129 13.0 24.0 0.00 0.00 0.00 53 1013.4
20260903230756 69 44 11.0 25.0 0.00 0.00 0.00 53 1013.4
20260903230254 69 64 10.0 25.0 0.00 0.00 0.00 53 1013.3
20260903225746 69 129 13.0 35.0 0.00 0.00 0.00 53 1013.2
20260903225244 69 50 13.0 35.0 0.00 0.00 0.00 52 1012.9
20260903224948 70 77 10.0 20.0 0.00 0.00 0.00 51 1012.7
20260903224214 70 36 11.0 23.0 0.00 0.00 0.00 52 1012.9
20260903223646 70 30 12.0 24.0 0.00 0.00 0.00 51 1012.6
20260903223143 70 93 11.0 24.0 0.00 0.00 0.00 50 1012.6
20260903222618 71 97 11.0 23.0 0.00 0.00 0.00 50 1012.5
20260903222052 71 48 11.0 30.0 0.00 0.00 0.00 51 1012.6
20260903221525 71 96 12.0 30.0 0.00 0.00 0.00 52 1012.3
20260903221022 71 65 13.0 28.0 0.00 0.00 0.00 51 1012.7
20260903220506 71 80 11.0 28.0 0.00 0.00 0.00 51 1012.8
20260903220006 72 63 12.0 26.0 0.00 0.00 0.00 50 1012.7
20260903215503 72 100 12.0 26.0 0.00 0.00 0.00 50 1012.7
20260903215006 72 71 12.0 20.0 0.00 0.00 0.00 49 1012.8
20260903214438 72 100 11.0 26.0 0.00 0.00 0.00 49 1012.8
20260903213937 72 55 11.0 23.0 0.00 0.00 0.00 48 1012.9
20260903213408 72 46 12.0 26.0 0.00 0.00 0.00 48 1012.8
20260903212906 72 72 11.0 26.0 0.00 0.00 0.00 47 1012.8
20260903212338 72 59 12.0 28.0 0.00 0.00 0.00 48 1013.1
20260903211842 73 55 10.0 20.0 0.00 0.00 0.00 47 1012.7
20260903211837 72 63 13.0 28.0 0.00 0.00 0.00 48 1012.9
20260903210830 73 60 8.0 21.0 0.00 0.00 0.00 46 1012.8
20260903210302 73 92 7.0 21.0 0.00 0.00 0.00 48 1012.7
20260903205800 73 65 8.0 14.0 0.00 0.00 0.00 48 1012.7
20260903205233 73 89 10.0 25.0 0.00 0.00 0.00 47 1012.9
20260903204729 73 86 10.0 25.0 0.00 0.00 0.00 46 1012.8
20260903204204 73 75 9.0 18.0 0.00 0.00 0.00 46 1012.8
20260903203701 73 79 9.0 22.0 0.00 0.00 0.00 47 1012.9
20260903203157 73 86 9.0 22.0 0.00 0.00 0.00 47 1013.0
20260903202642 73 72 7.0 0.0 0.00 0.00 0.00 49 1013.4
20260903202311 73 72 7.0 0.0 0.00 0.00 0.00 48 1013.4
20260903201723 74 24 7.0 16.0 0.00 0.00 0.00 48 1013.2
20260903201220 73 65 7.0 16.0 0.00 0.00 0.00 50 1013.3
20260903200712 73 85 8.0 16.0 0.00 0.00 0.00 49 1013.4
20260903200210 73 90 10.0 19.0 0.00 0.00 0.00 49 1013.4
20260903195703 72 72 10.0 19.0 0.00 0.00 0.00 49 1013.4
20260903195430 73 51 9.0 19.0 0.00 0.00 0.00 48 1013.4
20260903194632 73 76 9.0 20.0 0.00 0.00 0.00 48 1013.3
20260903194400 73 88 10.0 20.0 0.00 0.00 0.00 49 1013.3
20260903193604 72 61 10.0 19.0 0.00 0.00 0.00 50 1013.6
20260903193037 72 96 10.0 19.0 0.00 0.00 0.00 50 1013.7
20260903192804 72 86 8.0 18.0 0.00 0.00 0.00 49 1013.7
20260903192009 72 94 9.0 18.0 0.00 0.00 0.00 51 1013.6
20260903191456 72 54 10.0 22.0 0.00 0.00 0.00 51 1013.5
20260903190954 72 127 11.0 22.0 0.00 0.00 0.00 51 1013.5
20260903190427 72 82 11.0 24.0 0.00 0.00 0.00 51 1013.5
20260903185922 72 71 9.0 24.0 0.00 0.00 0.00 50 1013.5
20260903185628 72 73 10.0 21.0 0.00 0.00 0.00 51 1013.5
20260903185334 72 49 10.0 24.0 0.00 0.00 0.00 51 1013.7
20260903184324 71 43 10.0 22.0 0.00 0.00 0.00 51 1013.7
20260903183756 71 71 12.0 23.0 0.00 0.00 0.00 52 1013.7
20260903183253 71 355 12.0 23.0 0.00 0.00 0.00 53 1013.9
20260903182727 71 83 11.0 20.0 0.00 0.00 0.00 54 1013.9
20260903182201 70 72 12.0 22.0 0.00 0.00 0.00 55 1014.2
20260903181637 70 63 11.0 22.0 0.00 0.00 0.00 55 1014.2
20260903181110 71 115 9.0 19.0 0.00 0.00 0.00 55 1014.2
20260903180609 71 63 8.0 17.0 0.00 0.00 0.00 56 1014.3
20260903180112 71 88 8.0 16.0 0.00 0.00 0.00 56 1014.4
20260903175546 71 106 9.0 16.0 0.00 0.00 0.00 56 1014.4
20260903175044 72 129 7.0 18.0 0.00 0.00 0.00 56 1014.5
20260903174544 72 105 8.0 18.0 0.00 0.00 0.00 55 1014.4
20260903174026 71 95 9.0 19.0 0.00 0.00 0.00 55 1014.4
20260903173759 71 84 8.0 19.0 0.00 0.00 0.00 57 1014.3
20260903173008 71 57 8.0 18.0 0.00 0.00 0.00 57 1014.4
20260903172442 71 65 9.0 18.0 0.00 0.00 0.00 57 1014.5
20260903171923 71 85 10.0 20.0 0.00 0.00 0.00 58 1014.5
20260903171634 70 19 9.0 20.0 0.00 0.00 0.00 59 1014.6
20260903170843 70 105 9.0 21.0 0.00 0.00 0.00 60 1014.6
20260903170340 69 77 9.0 21.0 0.00 0.00 0.00 58 1014.7
20260903170116 70 109 8.0 17.0 0.00 0.00 0.00 58 1014.7
20260903165318 70 63 8.0 15.0 0.00 0.00 0.00 58 1014.7
20260903164815 70 61 9.0 16.0 0.00 0.00 0.00 58 1014.7
20260903164254 69 65 10.0 22.0 0.00 0.00 0.00 59 1014.8
20260903163731 69 61 10.0 22.0 0.00 0.00 0.00 59 1014.8
20260903163231 69 129 10.0 18.0 0.00 0.00 0.00 59 1014.8
20260903162704 70 49 9.0 18.0 0.00 0.00 0.00 57 1014.8
20260903162204 71 87 7.0 18.0 0.00 0.00 0.00 56 1014.8
20260903161705 71 94 6.0 17.0 0.00 0.00 0.00 57 1014.8
20260903161206 71 53 6.0 13.0 0.00 0.00 0.00 56 1014.8
20260903160648 71 94 7.0 13.0 0.00 0.00 0.00 55 1014.8
20260903160124 71 101 6.0 13.0 0.00 0.00 0.00 54 1014.9
20260903155602 71 108 5.0 16.0 0.00 0.00 0.00 55 1014.9
20260903155033 71 96 6.0 16.0 0.00 0.00 0.00 56 1014.9
20260903154743 70 51 8.0 16.0 0.00 0.00 0.00 56 1014.9
20260903153950 71 117 7.0 13.0 0.00 0.00 0.00 57 1015.1
20260903153945 70 95 8.0 15.0 0.00 0.00 0.00 56 1015.0
20260903152939 71 65 6.0 13.0 0.00 0.00 0.00 55 1015.0
20260903152437 71 146 6.0 13.0 0.00 0.00 0.00 56 1015.0
20260903152412 71 45 6.0 14.0 0.00 0.00 0.00 56 1015.0
20260903151638 71 78 7.0 14.0 0.00 0.00 0.00 56 1015.2
20260903150909 71 92 7.0 16.0 0.00 0.00 0.00 56 1015.0
20260903150352 71 71 6.0 16.0 0.00 0.00 0.00 57 1015.0
20260903145855 71 84 7.0 13.0 0.00 0.00 0.00 57 1015.1
20260903145329 70 98 6.0 13.0 0.00 0.00 0.00 57 1015.1
20260903145033 69 65 6.0 17.0 0.00 0.00 0.00 58 1015.1
20260903144301 70 75 6.0 17.0 0.00 0.00 0.00 57 1015.1
20260903143734 69 88 8.0 17.0 0.00 0.00 0.00 58 1015.0
20260903143229 69 47 8.0 18.0 0.00 0.00 0.00 59 1015.1
20260903142727 68 46 9.0 18.0 0.00 0.00 0.00 59 1015.2
20260903142201 68 94 9.0 16.0 0.00 0.00 0.00 59 1015.3
20260903141648 68 49 7.0 15.0 0.00 0.00 0.00 60 1015.4
20260903141423 68 84 7.0 15.0 0.00 0.00 0.00 60 1015.4
20260903140624 68 106 8.0 14.0 0.00 0.00 0.00 60 1015.4
20260903140115 67 84 8.0 19.0 0.00 0.00 0.00 60 1015.6
20260903135551 67 65 9.0 18.0 0.00 0.00 0.00 60 1015.6
20260903135022 68 61 8.0 16.0 0.00 0.00 0.00 59 1015.5
20260903134519 68 73 5.0 15.0 0.00 0.00 0.00 59 1015.8
20260903133951 68 99 5.0 13.0 0.00 0.00 0.00 60 1015.6
20260903133450 68 69 6.0 13.0 0.00 0.00 0.00 60 1015.8